Regional Weather Roundup
Issued by NWS

Home | Current Version | Previous Version | Graphics & Text | Print | Product List | Glossary On
Versions: 1 2 3 4 5 6 7 8 9 10 11 12 13 14 15 16 17 18 19 20 21 22 23 24 25 26 27
000
ASUS45 KBOI 261310
RWRID

IDAHO REGIONAL WEATHER ROUNDUP
NATIONAL WEATHER SERVICE BOISE ID
700 AM MDT THU MAY 26 2016

NOTE: "FAIR" INDICATES FEW OR NO CLOUDS BELOW 12000 FEET
WITH NO SIGNIFICANT WEATHER AND/OR OBSTRUCTIONS TO VISIBILITY

IDZ012-014-261400-
SOUTHWEST IDAHO


CITY           SKY/WX    TMP DP  RH WIND       PRES   REMARKS
BOISE          CLEAR     47  40  76 S7        30.02R
CALDWELL       CLEAR     49  44  83 W8        30.03R
MOUNTAIN HOME  PTCLDY    55  47  76 N8        30.01R
$$

IDZ016-017-261400-
SOUTHCENTRAL IDAHO


CITY           SKY/WX    TMP DP  RH WIND       PRES   REMARKS
BURLEY         CLEAR     43  39  86 SW3       30.03R
JEROME         CLEAR     47  40  76 S5        30.03S
TWIN FALLS     CLEAR     48  38  68 S10       30.04R
$$

IDZ019>023-261400-
SOUTHEAST IDAHO


CITY           SKY/WX    TMP DP  RH WIND       PRES   REMARKS
IDAHO FALLS    MOSUNNY   38  35  89 N3        30.05R
POCATELLO      CLEAR     40  38  93 CALM      30.05R
REXBURG        SUNNY     39  36  89 N3        30.06R
$$

IDZ006-010-011-018-031-032-261400-
CENTRAL IDAHO MOUNTAINS


CITY           SKY/WX    TMP DP  RH WIND       PRES   REMARKS
MCCALL         CLEAR     36  33  89 CALM      30.07R
HAILEY         PTCLDY    37  36  93 W7        30.08R WCI  32
STANLEY          N/A     30  27  88 CALM      30.13S
SALMON         CLEAR     39  34  81 SW3       30.08S
CHALLIS        CLEAR     41  36  82 CALM      30.09S
$$

IDZ002-004-006-007-026-261400-
NORTHERN IDAHO


CITY           SKY/WX    TMP DP  RH WIND       PRES   REMARKS
LEWISTON       PTCLDY    51  46  83 CALM      30.05R
LOWELL           N/A     50  48  93 CALM      30.07S
COEUR D`ALENE  CLOUDY    54  45  71 S6        30.02S
MULLAN PASS    CLOUDY    41  39  93 CALM      30.07S
$$




USA.gov is the U.S. government's official web portal to all federal, state and local government web resources and services.